Temp
22 24 24 24 24 22 23 24 24 24 23 23 22 22 22 22 21 22 21 21 21 21 21 21 22 22 22 23 23 23 23 23 23 21 21 21 21 20 20 19 19 19 19
24 24 24 24 23 23 24 23 23 23 22 22 22 22 21 21 21 21 21 21 21 21 21 20 20 21 21 21 22 22 23 23 23 22 21 21 21 21 21 21 20 19 19
25 24 23 23 24 23 23 23 23 22 22 21 21 21 21 21 20 21 21 21 21 20 20 20 20 20 20 21 21 21 22 23 23 22 22 21 21 21 21 21 21 21 20
26 25 24 24 24 25 23 23 22 22 21 21 21 21 21 21 21 20 21 21 20 19 19 18 19 19 19 20 19 19 20 22 23 23 22 21 20 20 20 20 20 20 20
26 24 24 24 25 24 23 22 21 21 20 20 21 21 21 21 21 21 21 20 20 19 18 18 18 19 19 19 18 18 19 19 19 21 20 18 17 17 17 18 18 19 19
26 25 25 25 25 23 22 21 21 20 21 20 21 21 21 20 21 21 21 20 20 19 19 18 18 19 19 18 18 18 18 17 17 18 17 16 16 16 16 17 18 18 18
27 27 26 25 23 22 22 21 20 20 21 21 21 21 20 20 20 21 21 20 20 20 20 19 20 18 18 18 18 18 17 17 17 17 16 16 16 16 16 17 17 18 18
27 27 25 23 22 21 21 21 21 20 20 21 21 20 19 19 20 20 20 20 20 20 19 19 19 18 18 19 19 18 17 17 17 17 16 16 16 16 16 16 17 18 17
27 26 24 22 21 21 21 21 21 21 21 20 20 19 18 19 19 20 20 20 19 19 19 18 18 18 18 18 18 18 17 17 17 17 17 17 16 16 16 16 16 17 18
26 25 23 22 22 21 21 21 21 21 21 21 20 19 18 19 19 20 20 20 19 19 18 18 18 18 17 17 18 18 18 17 18 18 18 17 17 16 15 15 15 15 16
25 24 22 21 21 21 21 21 21 21 21 21 19 18 18 19 20 19 19 20 20 19 18 18 18 17 17 17 17 17 17 17 18 18 18 18 18 17 16 16 15 15 15
26 23 22 21 21 21 21 21 21 21 21 19 18 18 18 19 19 19 19 19 20 20 20 19 18 17 17 17 17 17 17 18 18 19 19 18 18 17 17 16 16 16 16
24 22 22 22 21 21 21 21 21 21 19 19 18 18 18 18 19 19 19 19 20 21 20 19 18 18 17 17 17 18 17 18 19 19 18 18 18 17 17 17 17 17 17
23 22 22 21 21 21 21 20 21 20 20 20 19 20 19 18 18 18 18 19 19 19 19 19 18 18 17 17 17 18 18 18 18 18 17 18 18 18 17 17 17 17 17
24 22 22 22 21 21 21 21 21 21 21 21 20 21 20 19 18 18 19 19 19 18 18 18 17 17 17 17 18 18 18 18 18 17 17 17 17 17 17 17 17 17 17
23 22 22 22 21 21 21 22 22 22 22 22 22 22 22 21 20 19 19 19 19 19 19 18 18 18 18 19 20 19 19 19 18 17 17 17 17 17 17 17 17 17 17
24 22 22 23 22 22 22 22 21 22 22 23 23 23 24 22 21 20 19 19 19 19 19 19 19 20 21 21 20 20 20 18 18 17 17 17 17 17 17 17 17 17 16
26 24 23 24 23 23 23 23 23 22 20 22 23 23 24 23 22 21 20 19 18 19 19 20 20 21 21 21 21 20 20 19 18 17 17 17 17 17 17 17 17 17 16
27 26 26 25 25 25 24 25 24 24 23 22 21 22 23 22 22 21 20 19 18 18 18 19 19 21 21 21 21 20 19 18 18 18 17 18 17 17 17 17 17 16 16
27 28 27 26 27 26 25 26 25 25 24 23 22 20 21 20 19 19 19 18 19 19 19 19 19 20 22 21 21 20 19 18 18 17 17 17 17 16 16 16 16 16 16
28 29 27 28 28 27 27 26 26 26 26 24 23 22 19 19 18 17 17 17 18 19 19 19 19 20 21 22 21 20 19 18 17 17 17 17 17 17 16 16 16 16 16
28 29 28 29 29 28 28 27 27 27 27 26 25 23 21 19 19 18 18 17 17 18 19 20 20 20 21 21 21 19 19 18 17 18 18 17 17 17 16 16 16 16 16
28 30 29 28 30 30 28 28 28 28 28 28 26 25 22 19 19 20 19 19 18 18 19 20 20 21 21 21 20 20 19 18 18 18 18 17 17 17 16 16 16 16 16
29 30 32 29 29 30 29 29 29 29 29 29 28 27 22 20 20 20 21 20 19 19 18 19 20 20 21 21 20 20 19 19 19 18 18 17 17 17 16 16 16 16 16
29 30 32 30 29 29 31 30 29 30 29 30 30 28 25 22 21 21 21 22 21 21 19 19 19 20 20 21 20 20 19 19 19 18 18 17 17 16 16 16 16 16 16
28 30 31 32 30 29 30 30 30 29 30 30 30 30 28 23 22 21 22 22 22 22 21 21 20 20 20 20 20 19 19 19 19 17 17 16 15 14 15 16 16 16 16
Height
807 810 814 816 820 824 826 828 829 828 831 833 834 835 837 839 840 840 840 842 842 841 843 844 844 842 842 842 841 841 840 840 840 847 848 849 849 848 848 847 846 847 845
804 809 813 816 819 823 826 829 830 830 831 833 834 836 839 840 841 841 842 844 843 844 846 847 846 845 845 845 846 845 845 844 844 847 850 851 851 850 849 847 847 846 846
802 807 812 816 819 823 825 827 830 830 831 834 836 838 838 840 842 843 845 845 846 847 849 850 849 848 849 849 848 848 848 847 847 848 851 852 852 851 849 849 848 848 847
800 806 810 814 817 821 822 828 829 831 832 835 837 838 839 841 844 845 846 847 848 849 851 852 851 852 852 852 852 851 850 849 849 848 850 852 854 854 852 852 850 851 849
797 802 808 812 817 819 823 826 828 830 833 834 836 839 840 843 845 846 848 849 850 853 855 855 855 856 855 854 854 854 852 851 851 851 852 854 857 857 856 855 852 849 849
793 799 804 809 813 817 821 825 828 831 832 834 836 838 842 843 845 848 849 851 852 855 857 857 858 858 857 857 857 857 857 857 857 857 858 859 860 859 857 856 854 852 850
790 796 802 807 810 813 819 823 826 829 832 835 837 840 842 844 847 848 849 852 854 856 857 858 858 860 860 860 860 860 861 861 861 860 860 862 861 860 858 856 854 853 852
788 795 800 805 809 813 817 821 825 828 832 835 838 840 843 845 847 849 851 854 855 856 858 859 858 860 861 861 862 862 863 864 864 864 864 863 863 861 860 858 856 853 852
787 793 798 802 806 811 815 820 825 828 832 835 838 841 843 845 847 850 853 855 857 859 859 860 860 861 861 862 862 863 864 865 865 865 864 863 863 863 861 860 857 856 854
784 790 795 800 804 809 814 819 823 827 831 835 838 841 842 844 847 850 852 856 858 859 859 860 860 860 861 862 862 862 862 861 861 861 860 861 861 862 862 861 860 859 857
782 787 792 797 801 808 814 818 822 826 830 834 836 839 842 844 847 849 851 853 855 855 857 858 859 861 861 861 861 861 861 862 862 860 860 861 862 862 863 862 861 860 860
778 783 789 794 800 807 812 817 821 825 829 832 835 838 841 842 845 847 849 850 851 853 854 857 860 862 863 862 862 861 862 862 860 861 861 861 863 863 863 861 860 859 857
773 780 786 793 799 804 808 813 819 823 826 830 833 835 837 840 843 845 847 849 850 851 852 854 858 859 861 862 862 863 863 861 861 861 861 863 863 862 860 861 860 858 855
768 776 784 790 797 801 806 810 814 817 821 825 827 830 833 837 839 841 844 847 848 849 851 852 855 857 858 859 859 861 862 863 862 861 862 862 861 860 859 858 858 856 853
767 771 777 787 792 797 802 805 807 810 812 816 819 823 826 829 832 836 838 841 844 848 851 853 854 855 856 856 858 858 860 861 861 860 860 859 859 858 858 857 856 855 854
762 767 773 779 787 792 797 801 804 805 808 812 816 819 821 823 827 830 834 838 842 845 848 849 850 851 852 852 852 854 855 857 858 857 858 858 858 855 857 856 855 853 852
753 761 768 774 778 784 789 792 797 800 803 807 811 814 816 817 820 824 829 834 838 841 841 843 844 845 846 847 847 847 850 850 853 856 855 855 854 854 853 854 852 850 850
749 753 759 765 770 774 779 784 788 792 794 797 802 805 809 812 814 818 824 829 833 835 838 838 839 839 837 838 843 845 845 845 847 849 851 852 851 851 850 850 849 847 848
745 748 752 759 762 768 772 776 782 786 789 794 797 798 802 806 809 813 817 820 824 829 833 835 835 835 836 836 835 839 841 843 847 849 848 849 850 849 847 847 847 846 845
738 740 745 751 755 761 766 769 772 776 781 784 787 789 793 797 800 803 808 814 819 821 822 822 826 829 829 829 832 833 836 837 840 843 847 847 846 846 846 846 845 844 844
730 735 738 744 747 752 756 761 763 766 769 773 776 781 784 788 792 796 800 802 805 809 811 815 812 810 815 820 824 826 825 827 827 830 838 841 840 840 839 840 840 842 841
725 727 730 733 738 743 746 749 754 758 760 764 768 773 777 783 786 787 789 791 793 797 801 803 804 809 805 804 804 810 816 821 825 826 829 832 835 834 835 835 837 837 839
717 720 721 726 729 732 737 741 745 748 751 753 758 762 765 769 775 777 778 781 782 782 782 788 791 795 800 804 808 807 809 811 816 818 820 822 824 829 832 834 833 834 834
707 710 710 716 720 722 726 730 734 737 740 744 747 750 751 757 761 765 768 772 774 777 779 779 775 778 788 793 799 802 804 807 808 809 813 817 822 827 829 831 833 832 833
697 700 701 702 708 714 716 720 724 727 728 731 735 739 739 744 749 753 758 760 762 764 764 767 777 782 785 783 788 796 798 801 803 806 808 811 814 818 824 826 830 830 830
690 691 692 691 697 703 709 711 713 717 720 721 725 728 731 733 737 742 746 748 749 752 757 763 766 769 773 776 776 783 790 793 796 798 802 804 809 813 818 820 821 824 825
Wind_Speed
16 18 16 15 13 12 11 10 4 3 4 6 8 9 9 7 7 10 13 12 14 15 12 12 13 13 15 12 10 15 12 15 15 17 14 10 10 11 8 3 7 10 16
23 24 14 12 13 13 11 5 7 5 6 9 10 10 9 9 9 12 15 13 15 15 13 14 13 15 14 15 11 11 13 15 15 13 11 14 9 5 5 9 8 6 8
23 23 20 18 18 13 8 8 6 8 8 10 10 11 12 12 13 14 13 14 15 15 14 13 14 13 13 14 13 16 13 11 12 15 11 11 12 11 14 11 5 7 2
25 23 21 20 15 12 14 10 9 11 13 12 13 13 12 13 12 13 13 13 15 15 11 9 10 12 11 12 13 13 15 5 7 11 13 13 16 16 15 20 17 12 8
30 26 24 20 16 10 12 11 11 12 13 13 14 11 12 11 11 11 12 13 16 16 15 15 18 16 14 13 12 12 15 16 17 14 16 18 15 17 16 17 15 14 5
30 26 25 22 17 16 16 14 14 14 12 12 11 11 10 11 13 12 13 12 11 10 13 13 14 14 16 16 16 13 13 14 17 18 18 14 13 13 10 13 11 14 8
27 24 19 20 23 19 15 17 15 13 13 11 11 9 8 13 14 12 13 12 12 11 7 6 9 8 7 8 10 13 12 15 12 10 10 10 10 10 8 14 14 13 11
27 24 21 21 23 21 20 18 15 13 14 13 12 10 8 15 16 13 13 11 11 10 8 9 9 5 6 7 6 8 8 12 10 11 11 9 10 14 9 13 11 17 13
22 24 25 26 25 23 21 19 17 18 15 14 13 12 11 18 18 17 13 11 11 10 10 9 5 6 4 5 5 6 6 4 5 6 5 5 4 9 15 11 16 17 12
23 25 29 26 26 24 23 22 18 17 16 15 15 13 12 19 20 18 13 13 12 9 8 10 6 4 4 5 4 3 6 2 3 3 2 1 1 3 10 11 10 16 14
27 26 26 26 25 24 22 21 21 19 18 18 17 14 14 18 24 18 11 12 15 15 15 9 7 3 3 4 3 4 5 6 5 8 4 8 8 5 3 9 8 7 5
27 29 29 27 24 24 24 22 22 20 20 21 17 15 15 18 25 20 14 7 13 14 16 17 7 3 2 4 1 5 3 3 7 4 8 7 4 5 5 7 7 8 9
31 28 27 28 25 26 26 24 23 22 21 19 19 17 17 20 25 22 17 9 9 7 15 14 8 6 6 4 2 5 3 6 4 5 6 4 4 4 5 4 9 8 14
32 30 29 29 27 27 25 26 26 25 23 22 22 20 20 20 22 27 21 15 13 8 14 14 9 8 7 7 9 5 2 1 2 4 2 3 4 4 2 5 8 9 12
30 31 32 29 29 28 26 28 28 29 28 27 26 24 25 25 26 29 30 24 22 15 12 12 11 12 13 14 15 10 6 5 7 2 2 3 3 3 3 6 6 9 9
30 30 32 32 30 28 27 27 29 28 31 28 26 26 25 26 26 28 28 25 22 20 19 17 16 19 20 19 14 11 11 9 7 4 5 4 4 1 4 6 6 8 7
31 32 33 31 32 31 30 28 27 27 31 31 29 28 24 31 29 30 27 27 25 25 25 20 21 20 17 13 12 13 11 14 9 6 7 5 4 4 4 7 7 5 8
31 36 35 35 33 32 31 29 29 27 27 32 32 30 32 25 31 33 32 31 26 26 24 21 21 21 20 18 15 13 14 12 7 9 10 9 5 4 5 6 9 3 5
32 33 32 34 31 30 31 29 28 26 26 26 26 31 30 25 28 34 36 36 28 25 26 23 25 21 22 20 19 16 16 12 9 12 11 9 6 6 6 7 6 4 5
34 31 35 33 29 30 29 29 29 27 28 28 29 30 33 32 39 43 43 35 27 27 28 31 31 26 25 25 23 21 19 16 13 14 14 11 9 8 7 6 6 5 8
30 30 39 29 28 32 30 30 30 30 28 29 30 31 36 39 31 33 35 34 33 31 31 32 35 37 28 27 27 27 27 22 21 22 17 14 12 10 8 8 7 8 8
30 30 35 33 30 30 32 32 31 29 28 29 28 30 37 38 32 32 33 35 37 37 34 37 37 37 36 32 34 34 31 26 24 26 21 15 16 13 12 11 9 5 9
31 29 31 35 31 30 33 31 30 30 30 30 31 29 42 40 36 36 36 36 38 43 49 46 36 35 34 34 34 33 32 31 27 27 22 18 17 13 11 10 7 7 4
30 33 29 34 33 29 30 33 31 32 31 30 31 32 36 40 41 39 37 35 36 37 40 47 51 35 33 31 34 34 35 32 30 29 23 18 16 12 12 10 10 7 5
32 34 32 33 34 33 27 31 32 31 33 33 31 33 33 40 39 39 38 38 38 40 45 42 33 35 31 35 32 35 34 32 29 30 22 18 16 13 14 15 13 8 5
36 32 34 26 31 31 31 27 31 32 31 32 32 30 31 36 38 39 38 40 41 39 37 31 34 36 38 37 38 36 37 38 34 33 27 24 18 15 17 16 14 10 8
Wind_Direction
176 179 177 189 177 178 191 175 193 177 152 146 135 121 113 107 84 80 89 84 80 74 70 59 52 46 46 53 41 48 39 23 97 100 87 83 56 46 50 37 124 90 84
188 188 187 186 190 181 182 186 196 152 136 136 130 122 123 113 98 88 95 94 88 83 75 67 60 63 54 53 69 63 48 47 91 89 112 77 52 26 41 52 129 136 70
185 193 197 191 187 196 199 193 165 159 149 140 133 135 122 107 108 106 107 101 92 83 76 72 68 65 58 50 54 50 43 58 80 116 95 95 67 25 33 34 94 63 79
173 181 188 191 211 218 179 179 165 163 144 141 140 125 119 119 119 117 113 106 96 86 88 91 87 76 69 68 55 47 34 99 78 101 91 65 41 33 31 26 27 32 51
176 183 189 199 213 181 173 176 168 157 152 138 127 128 128 135 129 125 117 106 100 98 91 89 83 77 72 73 69 50 49 43 37 49 65 64 33 30 18 18 17 5 99
186 189 198 200 185 170 178 174 170 160 140 138 134 138 158 133 138 136 127 115 118 120 115 107 94 80 72 68 60 58 61 55 43 47 51 65 37 20 10 357 6 352 341
183 178 175 182 181 185 176 167 165 154 148 152 145 152 141 144 151 133 130 133 130 134 147 159 127 98 74 72 76 58 72 70 68 73 74 57 44 22 2 356 342 323 312
179 186 184 166 163 167 168 168 163 162 169 163 153 159 152 151 152 138 125 128 130 118 96 92 105 106 92 75 100 80 71 68 70 70 71 81 48 36 25 1 349 346 96
173 172 170 171 169 173 172 174 173 167 168 158 155 151 160 157 156 143 134 132 125 119 124 113 119 113 125 108 91 100 88 46 82 63 74 71 49 41 37 22 10 6 8
181 176 170 172 174 175 178 176 174 167 163 163 157 162 180 167 165 162 150 144 150 146 152 142 147 121 128 139 110 140 148 141 196 254 221 178 344 110 69 25 23 4 6
180 172 169 174 176 175 177 172 170 169 168 165 158 171 178 177 171 182 179 170 175 174 170 177 184 148 124 163 148 172 199 221 273 272 238 88 39 60 65 12 3 21 356
173 169 172 178 174 180 174 172 171 171 162 155 162 174 183 186 184 191 197 200 184 206 189 174 170 148 130 148 117 161 163 297 313 314 88 65 32 32 341 335 310 316 295
167 168 171 178 178 178 173 171 171 172 162 167 175 185 184 198 194 199 206 199 201 194 170 173 157 160 169 156 135 175 272 341 349 49 67 40 358 316 335 350 340 333 329
166 166 169 173 178 177 177 176 177 177 179 185 189 194 184 190 199 202 202 200 196 178 152 164 179 193 221 216 229 200 212 301 258 57 25 340 334 346 346 353 334 335 332
173 167 169 178 178 178 185 186 189 190 190 191 196 197 185 188 198 200 201 202 200 191 179 184 188 207 223 228 226 214 210 247 251 164 254 292 315 333 29 344 326 324 329
174 173 175 177 180 183 188 192 201 198 199 203 205 203 203 199 198 205 204 203 200 199 196 194 209 224 230 223 203 204 202 213 214 214 249 267 296 324 335 315 308 312 348
179 178 180 183 182 186 194 191 196 202 201 210 211 210 212 202 203 206 203 201 205 207 207 215 216 225 221 221 201 201 217 189 209 244 251 247 245 290 310 304 307 322 8
185 181 182 189 190 190 194 195 195 195 192 200 210 213 215 211 205 205 202 200 208 209 207 221 231 227 215 213 206 209 209 202 215 212 235 245 232 255 279 287 297 27 339
192 187 189 193 191 195 193 195 198 199 198 201 203 209 214 214 208 206 203 200 201 205 213 224 238 234 224 219 204 210 198 187 216 229 227 233 244 258 269 270 306 317 302
198 198 192 192 192 195 196 198 197 201 198 201 205 204 203 195 192 194 200 202 206 211 214 221 228 241 228 218 205 201 197 198 209 235 235 227 231 242 264 285 298 311 305
204 207 193 194 198 196 197 202 203 202 201 202 207 205 203 195 192 197 202 208 210 213 216 221 223 226 231 221 210 205 202 204 205 216 215 209 223 219 228 239 259 279 296
210 206 194 199 201 198 202 202 205 206 208 204 206 205 205 204 205 206 208 211 213 213 218 224 226 230 225 217 202 200 196 205 215 214 201 205 222 218 220 230 248 258 291
207 215 199 200 206 204 201 204 207 210 211 209 205 202 198 199 206 212 215 215 213 216 218 218 225 226 224 223 217 212 203 203 211 204 190 201 212 211 224 227 236 251 280
208 219 213 198 206 210 203 204 210 211 213 214 208 209 199 199 204 211 215 218 219 222 226 226 224 221 216 216 213 217 214 211 213 203 194 206 196 207 215 221 236 250 267
221 215 227 195 201 212 212 205 210 216 214 216 215 211 206 201 205 210 213 216 221 221 227 228 228 228 225 217 212 217 216 215 215 206 198 194 191 204 221 223 241 238 262
216 226 223 217 196 204 217 215 213 215 222 217 219 216 211 202 205 210 215 218 221 224 226 228 226 223 219 221 217 216 220 213 215 210 201 191 190 200 216 218 224 215 234